,,Stat1,,Stat2,,Stat3,,Stat4,,Wind1,,Wind1,
time,status,PR1M_SUM,status,RH1M_AVG,status,SR1M_AVG,status,TA1M_AVG,status,W1dAve1m,status,W1sAve1m,
1999-10-14, 00:01:00,VALID,0,VALID,99.3047,VALID,-0.0169808,VALID,17.5458,VALID,184,VALID,0,
1999-10-14, 00:02:00,VALID,0,VALID,99.3454,VALID,-0.0849042,VALID,17.5327,VALID,184,VALID,0,
1999-10-14, 00:03:00,VALID,0,VALID,99.3823,VALID,-0.0169808,VALID,17.5393,VALID,182,VALID,0,
1999-10-14, 00:04:00,VALID,0,VALID,99.4357,VALID,0.0169808,VALID,17.5585,VALID,158,VALID,0,
1999-10-14, 00:05:00,VALID,0,VALID,99.4649,VALID,0.0679233,VALID,17.5673,VALID,130,VALID,0,
1999-10-14, 00:06:00,VALID,0,VALID,99.5056,VALID,0.0509425,VALID,17.5667,VALID,111,VALID,0,
1999-10-14, 00:07:00,VALID,0,VALID,99.5272,VALID,0.0679233,VALID,17.5934,VALID,110,VALID,0,
1999-10-14, 00:08:00,VALID,0,VALID,99.5209,VALID,0.0339617,VALID,17.5803,VALID,123,VALID,0,
1999-10-14, 00:09:00,VALID,0,VALID,99.4751,VALID,0.0849042,VALID,17.5445,VALID,120,VALID,0,
1999-10-14, 00:10:00,VALID,0,VALID,99.47,VALID,0,VALID,17.5445,VALID,112,VALID,0,
1999-10-14, 00:11:00,VALID,0,VALID,99.5043,VALID,0.0169808,VALID,17.5641,VALID,115,VALID,0,
1999-10-14, 00:12:00,VALID,0,VALID,99.4929,VALID,0.0339617,VALID,17.5542,VALID,137,VALID,0,
1999-10-14, 00:13:00,VALID,0,VALID,99.3683,VALID,0.0509425,VALID,17.5253,VALID,175,VALID,0.190168,
1999-10-14, 00:14:00,VALID,0,VALID,99.3441,VALID,0,VALID,17.5027,VALID,205,VALID,0.693945,
1999-10-14, 00:15:00,VALID,0,VALID,99.3441,VALID,0.0169808,VALID,17.4703,VALID,210,VALID,0.60773,
1999-10-14, 00:16:01,VALID,0,VALID,99.3594,VALID,0.0339617,VALID,17.4738,VALID,218,VALID,0.499023,
1999-10-14, 00:17:00,VALID,0,VALID,99.3149,VALID,0.0509425,VALID,17.4604,VALID,203,VALID,0.646429,
1999-10-14, 00:18:00,VALID,0,VALID,99.2347,VALID,0.0679233,VALID,17.4343,VALID,197,VALID,0.715872,
1999-10-14, 00:19:00,VALID,0,VALID,99.1228,VALID,0.0169808,VALID,17.4322,VALID,195,VALID,0.767475,
1999-10-14, 00:20:00,VALID,0,VALID,99.0287,VALID,-0.0339617,VALID,17.4232,VALID,195,VALID,0.824219,
1999-10-14, 00:21:00,VALID,0,VALID,98.9957,VALID,-0.0509425,VALID,17.426,VALID,204,VALID,0.736545,
1999-10-14, 00:22:00,VALID,0,VALID,98.9817,VALID,-0.0509425,VALID,17.4518,VALID,193,VALID,0.675781,
1999-10-14, 00:23:00,VALID,0,VALID,98.9779,VALID,-0.0849042,VALID,17.4553,VALID,191,VALID,0.443164,
1999-10-14, 00:24:00,VALID,0,VALID,99.002,VALID,-0.101885,VALID,17.4751,VALID,189,VALID,0.0192308,
1999-10-14, 00:25:00,VALID,0,VALID,99.0198,VALID,-0.0509425,VALID,17.4881,VALID,180,VALID,0.224918,
1999-10-14, 00:26:01,VALID,0,VALID,98.9575,VALID,-0.0339617,VALID,17.4814,VALID,165,VALID,0.436061,
1999-10-14, 00:27:01,VALID,0,VALID,98.9728,VALID,-0.101885,VALID,17.4811,VALID,161,VALID,0.586349,
1999-10-14, 00:28:00,VALID,0,VALID,98.9232,VALID,-0.0679233,VALID,17.4846,VALID,161,VALID,0.639672,
1999-10-14, 00:29:00,VALID,0,VALID,98.8507,VALID,-0.0509425,VALID,17.4652,VALID,171,VALID,0.501758,
1999-10-14, 00:30:00,VALID,0,VALID,98.7999,VALID,-0.0679233,VALID,17.4525,VALID,174,VALID,0.383224,
1999-10-14, 00:31:00,VALID,0,VALID,98.81,VALID,-0.101885,VALID,17.4458,VALID,179,VALID,0.37207,
1999-10-14, 00:32:00,VALID,0,VALID,98.8634,VALID,-0.0849042,VALID,17.4488,VALID,179,VALID,0.145536,
1999-10-14, 00:33:00,VALID,0,VALID,98.969,VALID,-0.0509425,VALID,17.4587,VALID,167,VALID,0.0550987,
1999-10-14, 00:34:00,VALID,0,VALID,98.9957,VALID,-0.0509425,VALID,17.4585,VALID,162,VALID,0.450658,
1999-10-14, 00:35:00,VALID,0,VALID,99.0122,VALID,-0.0509425,VALID,17.4615,VALID,158,VALID,0.416324,
1999-10-14, 00:36:00,VALID,0,VALID,99.016,VALID,-0.0509425,VALID,17.462,VALID,155,VALID,0.389974,
1999-10-14, 00:37:00,VALID,0,VALID,98.9893,VALID,-0.0679233,VALID,17.4652,VALID,153,VALID,0.517144,
1999-10-14, 00:38:01,VALID,0,VALID,98.9105,VALID,-0.0509425,VALID,17.4391,VALID,153,VALID,0.455859,
1999-10-14, 00:39:00,VALID,0,VALID,98.8342,VALID,-0.0679233,VALID,17.4165,VALID,163,VALID,0.254808,
1999-10-14, 00:40:00,VALID,0,VALID,98.8164,VALID,-0.0169808,VALID,17.3971,VALID,176,VALID,0.0793586,
1999-10-14, 00:41:00,VALID,0,VALID,98.8723,VALID,-0.0169808,VALID,17.3742,VALID,178,VALID,0,
1999-10-14, 00:42:00,VALID,0,VALID,98.9003,VALID,-0.0509425,VALID,17.3777,VALID,180,VALID,0,
1999-10-14, 00:43:00,VALID,0,VALID,98.9067,VALID,-0.0679233,VALID,17.3581,VALID,181,VALID,0,
1999-10-14, 00:44:00,VALID,0,VALID,98.9385,VALID,-0.0509425,VALID,17.3488,VALID,180,VALID,0,
1999-10-14, 00:45:00,VALID,0,VALID,99.0478,VALID,-0.0509425,VALID,17.3745,VALID,164,VALID,0,
1999-10-14, 00:46:00,VALID,0,VALID,99.0771,VALID,-0.0339617,VALID,17.3777,VALID,160,VALID,0,
1999-10-14, 00:47:00,VALID,0,VALID,98.9906,VALID,-0.0339617,VALID,17.3521,VALID,155,VALID,0.342411,
1999-10-14, 00:48:00,VALID,0,VALID,98.9346,VALID,-0.0339617,VALID,17.3324,VALID,152,VALID,0.738898,
1999-10-14, 00:49:01,VALID,0,VALID,98.8011,VALID,-0.0679233,VALID,17.3133,VALID,155,VALID,0.640008,
1999-10-14, 00:50:00,VALID,0,VALID,98.8113,VALID,-0.0339617,VALID,17.3329,VALID,134,VALID,0.43565,
1999-10-14, 00:51:00,VALID,0,VALID,98.7401,VALID,-0.0339617,VALID,17.3199,VALID,147,VALID,0.578559,
1999-10-14, 00:52:00,VALID,0,VALID,98.6091,VALID,-0.0679233,VALID,17.31,VALID,165,VALID,0.515191,
1999-10-14, 00:53:00,VALID,0,VALID,98.5468,VALID,-0.0679233,VALID,17.3135,VALID,170,VALID,0.496875,
1999-10-14, 00:54:00,VALID,0,VALID,98.4018,VALID,-0.0849042,VALID,17.2811,VALID,174,VALID,0.540465,
1999-10-14, 00:55:00,VALID,0,VALID,98.3573,VALID,-0.0679233,VALID,17.2745,VALID,164,VALID,0.447368,
1999-10-14, 00:56:00,VALID,0,VALID,98.3879,VALID,-0.101885,VALID,17.2977,VALID,161,VALID,0.579153,
1999-10-14, 00:57:00,VALID,0,VALID,98.4667,VALID,-0.0679233,VALID,17.3072,VALID,154,VALID,0.677837,
1999-10-14, 00:58:00,VALID,0,VALID,98.4196,VALID,-0.0339617,VALID,17.2809,VALID,156,VALID,0.743331,
1999-10-14, 00:59:00,VALID,0,VALID,98.1971,VALID,-0.0339617,VALID,17.2581,VALID,159,VALID,0.777734,
1999-10-14, 01:00:01,VALID,0,VALID,98.1068,VALID,-0.0509425,VALID,17.2587,VALID,153,VALID,0.713816,
1999-10-14, 01:01:00,VALID,0,VALID,98.0903,VALID,-0.0339617,VALID,17.2484,VALID,136,VALID,0.576758,
1999-10-14, 01:02:00,VALID,0,VALID,98.206,VALID,-0.0339617,VALID,17.2585,VALID,122,VALID,0.376563,
1999-10-14, 01:03:00,VALID,0,VALID,98.3281,VALID,-0.0339617,VALID,17.2484,VALID,141,VALID,0.2169,
1999-10-14, 01:04:00,VALID,0,VALID,98.0941,VALID,-0.0169808,VALID,17.2322,VALID,161,VALID,0.809005,
1999-10-14, 01:05:00,VALID,0,VALID,97.6134,VALID,0,VALID,17.1835,VALID,167,VALID,0.957854,
1999-10-14, 01:06:00,VALID,0,VALID,97.4952,VALID,0,VALID,17.1803,VALID,164,VALID,0.741319,
1999-10-14, 01:07:00,VALID,0,VALID,97.4367,VALID,-0.0169808,VALID,17.1773,VALID,157,VALID,0.78928,
1999-10-14, 01:08:00,VALID,0,VALID,97.1608,VALID,-0.0169808,VALID,17.1676,VALID,165,VALID,0.598047,
1999-10-14, 01:09:01,VALID,0,VALID,97.1404,VALID,-0.0169808,VALID,17.1706,VALID,155,VALID,0.557492,
1999-10-14, 01:10:01,VALID,0,VALID,97.2332,VALID,-0.0169808,VALID,17.1742,VALID,160,VALID,0.50699,
1999-10-14, 01:11:01,VALID,0,VALID,97.4748,VALID,-0.0339617,VALID,17.1745,VALID,162,VALID,0.364515,
1999-10-14, 01:12:00,VALID,0,VALID,97.7279,VALID,-0.0339617,VALID,17.171,VALID,163,VALID,0.279811,
1999-10-14, 01:13:00,VALID,0,VALID,97.761,VALID,-0.0339617,VALID,17.1544,VALID,170,VALID,0.509337,
1999-10-14, 01:14:00,VALID,0,VALID,97.8182,VALID,-0.0169808,VALID,17.1488,VALID,169,VALID,0.45957,
1999-10-14, 01:15:00,VALID,0,VALID,97.6414,VALID,0,VALID,17.1126,VALID,188,VALID,0.740132,
1999-10-14, 01:16:00,VALID,0,VALID,97.6033,VALID,-0.0339617,VALID,17.0934,VALID,189,VALID,0.854297,
1999-10-14, 01:17:00,VALID,0,VALID,97.6656,VALID,-0.0169808,VALID,17.0874,VALID,184,VALID,0.75625,
1999-10-14, 01:18:00,VALID,0,VALID,97.822,VALID,-0.0339617,VALID,17.0842,VALID,180,VALID,0.678248,
1999-10-14, 01:19:00,VALID,0,VALID,98.0394,VALID,-0.0509425,VALID,17.054,VALID,184,VALID,0.825041,
1999-10-14, 01:20:01,VALID,0,VALID,98.0687,VALID,0.0169808,VALID,17.0417,VALID,185,VALID,0.977179,
1999-10-14, 01:21:00,VALID,0,VALID,98.131,VALID,0,VALID,17.0217,VALID,184,VALID,0.762153,
1999-10-14, 01:22:00,VALID,0,VALID,98.1386,VALID,0,VALID,17.0322,VALID,178,VALID,0.882813,
1999-10-14, 01:23:00,VALID,0,VALID,98.1017,VALID,-0.0509425,VALID,17.0292,VALID,186,VALID,0.920703,
1999-10-14, 01:24:00,VALID,0,VALID,97.8919,VALID,-0.0169808,VALID,17.0359,VALID,196,VALID,1.05849,
1999-10-14, 01:25:00,VALID,0,VALID,97.7292,VALID,0,VALID,17.0452,VALID,190,VALID,1.04646,
1999-10-14, 01:26:00,VALID,0,VALID,97.246,VALID,-0.0169808,VALID,17.0641,VALID,191,VALID,1.03557,
1999-10-14, 01:27:00,VALID,0,VALID,96.9459,VALID,-0.0339617,VALID,17.1066,VALID,198,VALID,1.05489,
1999-10-14, 01:28:00,VALID,0,VALID,96.7538,VALID,-0.0169808,VALID,17.1225,VALID,191,VALID,1.05621,
1999-10-14, 01:29:00,VALID,0,VALID,96.6254,VALID,-0.0169808,VALID,17.1553,VALID,188,VALID,0.914258,
1999-10-14, 01:30:00,VALID,0,VALID,96.8034,VALID,-0.0169808,VALID,17.1814,VALID,175,VALID,0.644531,
1999-10-14, 01:31:00,VALID,0,VALID,96.8708,VALID,0,VALID,17.1678,VALID,177,VALID,0.632227,
1999-10-14, 01:32:00,VALID,0,VALID,97.0565,VALID,0,VALID,17.1648,VALID,172,VALID,0.714063,
1999-10-14, 01:33:00,VALID,0,VALID,97.2167,VALID,-0.0339617,VALID,17.132,VALID,174,VALID,0.648438,
1999-10-14, 01:34:00,VALID,0,VALID,97.2638,VALID,0,VALID,17.1126,VALID,174,VALID,0.643092,
1999-10-14, 01:35:00,VALID,0,VALID,97.2256,VALID,-0.0169808,VALID,17.0999,VALID,181,VALID,0.759046,
1999-10-14, 01:36:00,VALID,0,VALID,97.4405,VALID,0,VALID,17.0934,VALID,177,VALID,0.616753,
1999-10-14, 01:37:00,VALID,0,VALID,97.6745,VALID,0,VALID,17.1001,VALID,180,VALID,0.550998,
1999-10-14, 01:38:00,VALID,0,VALID,97.6058,VALID,0,VALID,17.0674,VALID,186,VALID,0.717578,
1999-10-14, 01:39:00,VALID,0,VALID,97.7241,VALID,-0.0169808,VALID,17.0611,VALID,189,VALID,0.695713,
1999-10-14, 01:40:00,VALID,0,VALID,97.6656,VALID,0,VALID,17.035,VALID,197,VALID,0.748355,
1999-10-14, 01:41:00,VALID,0,VALID,97.6681,VALID,-0.0169808,VALID,17.0352,VALID,195,VALID,0.669613,
1999-10-14, 01:42:00,VALID,0,VALID,97.4176,VALID,-0.0509425,VALID,17.0324,VALID,194,VALID,0.706414,
1999-10-14, 01:43:00,VALID,0,VALID,97.0196,VALID,-0.0339617,VALID,17.0286,VALID,195,VALID,0.904916,
1999-10-14, 01:44:00,VALID,0,VALID,96.9166,VALID,-0.0169808,VALID,17.0712,VALID,200,VALID,0.925586,
1999-10-14, 01:45:00,VALID,0,VALID,96.792,VALID,-0.0339617,VALID,17.0773,VALID,187,VALID,0.94449,
1999-10-14, 01:46:00,VALID,0,VALID,96.8467,VALID,-0.0339617,VALID,17.0934,VALID,183,VALID,0.658717,
1999-10-14, 01:47:00,VALID,0,VALID,96.8009,VALID,-0.0169808,VALID,17.0969,VALID,191,VALID,0.803571,
1999-10-14, 01:48:00,VALID,0,VALID,96.9955,VALID,0,VALID,17.0965,VALID,208,VALID,0.147615,
1999-10-14, 01:49:00,VALID,0,VALID,97.0387,VALID,-0.0339617,VALID,17.113,VALID,199,VALID,0,
1999-10-14, 01:50:00,VALID,0,VALID,97.073,VALID,-0.0339617,VALID,17.1096,VALID,201,VALID,0.387336,
1999-10-14, 01:51:00,VALID,0,VALID,97.2256,VALID,0,VALID,17.1124,VALID,202,VALID,0.695313,
1999-10-14, 01:52:00,VALID,0,VALID,97.3591,VALID,0,VALID,17.1193,VALID,199,VALID,0.701823,
1999-10-14, 01:53:00,VALID,0,VALID,97.4799,VALID,-0.0339617,VALID,17.1128,VALID,203,VALID,0.778516,
1999-10-14, 01:54:01,VALID,0,VALID,97.63,VALID,0,VALID,17.1165,VALID,203,VALID,1.07171,
1999-10-14, 01:55:00,VALID,0,VALID,97.5575,VALID,-0.0339617,VALID,17.0967,VALID,197,VALID,1.06024,
1999-10-14, 01:56:00,VALID,0,VALID,97.4494,VALID,-0.0169808,VALID,17.0937,VALID,196,VALID,1.06949,
1999-10-14, 01:57:00,VALID,0,VALID,97.3375,VALID,0,VALID,17.0939,VALID,194,VALID,1.18976,
1999-10-14, 01:58:00,VALID,0,VALID,97.1735,VALID,-0.0169808,VALID,17.1036,VALID,195,VALID,1.17302,
1999-10-14, 01:59:00,VALID,0,VALID,96.7907,VALID,-0.0169808,VALID,17.1036,VALID,189,VALID,1.35176,
1999-10-14, 02:00:00,VALID,0,VALID,96.5097,VALID,0,VALID,17.1158,VALID,191,VALID,1.37356,
1999-10-14, 02:01:00,VALID,0,VALID,96.5606,VALID,-0.0169808,VALID,17.1318,VALID,186,VALID,1.11016,
1999-10-14, 02:02:00,VALID,0,VALID,96.5428,VALID,0,VALID,17.1389,VALID,188,VALID,1.19531,
1999-10-14, 02:03:00,VALID,0,VALID,96.4283,VALID,-0.0339617,VALID,17.1258,VALID,188,VALID,1.28351,
1999-10-14, 02:04:00,VALID,0,VALID,96.3419,VALID,0.0509425,VALID,17.1288,VALID,192,VALID,1.41653,
1999-10-14, 02:05:01,VALID,0,VALID,96.2338,VALID,0.0849042,VALID,17.1247,VALID,194,VALID,1.48993,
1999-10-14, 02:06:00,VALID,0,VALID,96.5033,VALID,0.0679233,VALID,17.1344,VALID,191,VALID,1.13867,
1999-10-14, 02:07:00,VALID,0,VALID,96.5987,VALID,0.0679233,VALID,17.1309,VALID,202,VALID,1.11003,
1999-10-14, 02:08:00,VALID,0,VALID,96.689,VALID,0.0169808,VALID,17.1249,VALID,197,VALID,1.30332,
1999-10-14, 02:09:00,VALID,0,VALID,96.5326,VALID,0.0169808,VALID,17.1085,VALID,192,VALID,1.38121,
1999-10-14, 02:10:00,VALID,0,VALID,96.2617,VALID,0.0679233,VALID,17.1122,VALID,193,VALID,1.46073,
1999-10-14, 02:11:00,VALID,0,VALID,96.2401,VALID,0.0339617,VALID,17.1055,VALID,193,VALID,1.27961,
1999-10-14, 02:12:00,VALID,0,VALID,96.0456,VALID,0.0169808,VALID,17.1089,VALID,191,VALID,1.58059,
1999-10-14, 02:13:00,VALID,0,VALID,96.1448,VALID,0,VALID,17.1191,VALID,190,VALID,1.36185,
1999-10-14, 02:14:00,VALID,0,VALID,96.3902,VALID,0.0169808,VALID,17.1059,VALID,192,VALID,1.16914,
1999-10-14, 02:15:00,VALID,0,VALID,96.586,VALID,0.0339617,VALID,17.0962,VALID,197,VALID,1.13281,
1999-10-14, 02:16:00,VALID,0,VALID,96.9077,VALID,0,VALID,17.0801,VALID,203,VALID,1.00996,
1999-10-14, 02:17:00,VALID,0,VALID,97.0692,VALID,0.0339617,VALID,17.0637,VALID,208,VALID,1.05201,
1999-10-14, 02:18:00,VALID,0,VALID,97.3121,VALID,0.0169808,VALID,17.0639,VALID,214,VALID,1.02118,
1999-10-14, 02:19:00,VALID,0,VALID,97.5003,VALID,0,VALID,17.0477,VALID,202,VALID,1.06435,
1999-10-14, 02:20:00,VALID,0,VALID,97.5486,VALID,-0.0679233,VALID,17.0426,VALID,205,VALID,1.04379,
1999-10-14, 02:21:00,VALID,0,VALID,97.5995,VALID,-0.0679233,VALID,17.0299,VALID,204,VALID,1.00998,
1999-10-14, 02:22:00,VALID,0,VALID,97.6948,VALID,-0.0509425,VALID,17.0232,VALID,197,VALID,1.13824,
1999-10-14, 02:23:00,VALID,0,VALID,97.5944,VALID,-0.0849042,VALID,16.9967,VALID,195,VALID,1.45586,
1999-10-14, 02:24:00,VALID,0,VALID,97.3604,VALID,-0.0679233,VALID,17.0072,VALID,195,VALID,1.15905,
1999-10-14, 02:25:00,VALID,0,VALID,97.1913,VALID,-0.0509425,VALID,17.0199,VALID,191,VALID,1.2683,
1999-10-14, 02:26:01,VALID,0,VALID,96.82,VALID,-0.0169808,VALID,17.0227,VALID,203,VALID,1.2757,
1999-10-14, 02:27:00,VALID,0,VALID,96.7526,VALID,-0.0679233,VALID,17.0551,VALID,199,VALID,0.846628,
1999-10-14, 02:28:00,VALID,0,VALID,96.3457,VALID,-0.0849042,VALID,17.0712,VALID,191,VALID,1.2077,
1999-10-14, 02:29:00,VALID,0,VALID,95.851,VALID,-0.0509425,VALID,17.0842,VALID,183,VALID,1.0332,
1999-10-14, 02:30:00,VALID,0,VALID,95.9146,VALID,0,VALID,17.0999,VALID,182,VALID,0.875822,
1999-10-14, 02:31:00,VALID,0,VALID,95.9438,VALID,-0.0169808,VALID,17.0997,VALID,173,VALID,0.824805,
1999-10-14, 02:32:00,VALID,0,VALID,96.235,VALID,-0.0509425,VALID,17.1033,VALID,172,VALID,0.658705,
1999-10-14, 02:33:00,VALID,0,VALID,96.1943,VALID,-0.0339617,VALID,17.084,VALID,187,VALID,0.783306,
1999-10-14, 02:34:00,VALID,0,VALID,96.2528,VALID,-0.0169808,VALID,17.0712,VALID,199,VALID,0.870683,
1999-10-14, 02:35:00,VALID,0,VALID,96.3126,VALID,0.0509425,VALID,17.0501,VALID,201,VALID,0.938939,
1999-10-14, 02:36:00,VALID,0,VALID,96.4944,VALID,0.0509425,VALID,17.0409,VALID,198,VALID,0.998481,
1999-10-14, 02:37:00,VALID,0,VALID,96.7195,VALID,0.0339617,VALID,17.0376,VALID,199,VALID,0.871094,
1999-10-14, 02:38:00,VALID,0,VALID,96.7093,VALID,0.0169808,VALID,17.0184,VALID,189,VALID,0.808203,
1999-10-14, 02:39:00,VALID,0,VALID,96.8683,VALID,0.0849042,VALID,17.0014,VALID,175,VALID,0.757612,
1999-10-14, 02:40:00,VALID,0,VALID,96.8352,VALID,0.0679233,VALID,16.9891,VALID,182,VALID,0.793997,
1999-10-14, 02:41:00,VALID,0,VALID,96.4792,VALID,0.0339617,VALID,16.9672,VALID,184,VALID,0.931949,
1999-10-14, 02:42:00,VALID,0,VALID,96.3673,VALID,0.0509425,VALID,16.9697,VALID,189,VALID,0.944901,
1999-10-14, 02:43:00,VALID,0,VALID,96.3266,VALID,0.101885,VALID,16.9598,VALID,186,VALID,1.01886,
1999-10-14, 02:44:00,VALID,0,VALID,96.4067,VALID,0.0679233,VALID,16.973,VALID,188,VALID,1.12324,
1999-10-14, 02:45:00,VALID,0,VALID,96.3533,VALID,0.0509425,VALID,16.96,VALID,190,VALID,1.06003,
1999-10-14, 02:46:00,VALID,0,VALID,96.4919,VALID,0.0339617,VALID,16.9766,VALID,195,VALID,0.976172,
1999-10-14, 02:47:00,VALID,0,VALID,96.5771,VALID,0.0169808,VALID,16.9799,VALID,199,VALID,0.925223,
1999-10-14, 02:48:00,VALID,0,VALID,96.6305,VALID,0.0509425,VALID,16.9829,VALID,202,VALID,1.09478,
1999-10-14, 02:49:00,VALID,0,VALID,96.5707,VALID,0,VALID,16.9803,VALID,200,VALID,1.27282,
1999-10-14, 02:50:00,VALID,0,VALID,96.2986,VALID,-0.0509425,VALID,16.9781,VALID,199,VALID,1.40255,
1999-10-14, 02:51:00,VALID,0,VALID,96.16,VALID,-0.101885,VALID,17.007,VALID,201,VALID,1.33919,
1999-10-14, 02:52:00,VALID,0,VALID,96.0265,VALID,-0.0509425,VALID,17.0102,VALID,201,VALID,1.30035,
1999-10-14, 02:53:00,VALID,0,VALID,95.9693,VALID,-0.0849042,VALID,17.0296,VALID,201,VALID,1.15039,
1999-10-14, 02:54:00,VALID,0,VALID,96.0328,VALID,-0.101885,VALID,17.049,VALID,208,VALID,1.03185,
1999-10-14, 02:55:00,VALID,0,VALID,96.1804,VALID,-0.0849042,VALID,17.046,VALID,206,VALID,1.27467,
1999-10-14, 02:56:00,VALID,0,VALID,96.3101,VALID,-0.0849042,VALID,17.0264,VALID,206,VALID,1.2241,
1999-10-14, 02:57:00,VALID,0,VALID,96.4143,VALID,-0.101885,VALID,17.0268,VALID,201,VALID,1.21094,
1999-10-14, 02:58:00,VALID,0,VALID,96.3596,VALID,-0.0849042,VALID,17.0038,VALID,200,VALID,1.29478,
1999-10-14, 02:59:00,VALID,0,VALID,96.3673,VALID,-0.0849042,VALID,17.0167,VALID,192,VALID,1.2873,
1999-10-14, 03:00:01,VALID,0,VALID,96.3266,VALID,-0.0679233,VALID,17.0167,VALID,186,VALID,0.999589,
1999-10-14, 03:01:00,VALID,0,VALID,96.3838,VALID,-0.101885,VALID,17.0204,VALID,188,VALID,1.09453,
1999-10-14, 03:02:00,VALID,0,VALID,96.4576,VALID,-0.0849042,VALID,17.0005,VALID,188,VALID,1.1192,
1999-10-14, 03:03:00,VALID,0,VALID,96.4563,VALID,-0.0339617,VALID,16.9876,VALID,189,VALID,1.13281,
1999-10-14, 03:04:00,VALID,0,VALID,96.5682,VALID,-0.0509425,VALID,16.9743,VALID,191,VALID,1.01542,
1999-10-14, 03:05:00,VALID,0,VALID,96.4855,VALID,0,VALID,16.9641,VALID,185,VALID,1.08121,
1999-10-14, 03:06:00,VALID,0,VALID,96.4054,VALID,0,VALID,16.9607,VALID,183,VALID,1.01736,
1999-10-14, 03:07:00,VALID,0,VALID,96.305,VALID,0,VALID,16.9641,VALID,188,VALID,0.984809,
1999-10-14, 03:08:00,VALID,0,VALID,96.2948,VALID,-0.0169808,VALID,16.9803,VALID,179,VALID,0.780664,
1999-10-14, 03:09:00,VALID,0,VALID,96.1943,VALID,0,VALID,17.0001,VALID,183,VALID,0.757612,
1999-10-14, 03:10:01,VALID,0,VALID,96.2134,VALID,0,VALID,16.987,VALID,187,VALID,0.707031,
1999-10-14, 03:11:01,VALID,0,VALID,95.9515,VALID,0,VALID,17.0003,VALID,190,VALID,0.785567,
1999-10-14, 03:12:00,VALID,0,VALID,96.1333,VALID,-0.0169808,VALID,17.0128,VALID,209,VALID,0.808183,
1999-10-14, 03:13:00,VALID,0,VALID,96.3177,VALID,0,VALID,17.0128,VALID,210,VALID,0.792302,
1999-10-14, 03:14:00,VALID,0,VALID,96.4258,VALID,0,VALID,16.99,VALID,205,VALID,0.936328,
1999-10-14, 03:15:00,VALID,0,VALID,96.6,VALID,-0.0169808,VALID,16.9648,VALID,204,VALID,0.757401,
1999-10-14, 03:16:00,VALID,0,VALID,96.7844,VALID,0,VALID,16.9189,VALID,206,VALID,0.885938,
1999-10-14, 03:17:00,VALID,0,VALID,96.7996,VALID,-0.0169808,VALID,16.89,VALID,206,VALID,1.04643,
1999-10-14, 03:18:00,VALID,0,VALID,96.7437,VALID,-0.0339617,VALID,16.8708,VALID,202,VALID,1.12685,
1999-10-14, 03:19:00,VALID,0,VALID,96.689,VALID,-0.0339617,VALID,16.8609,VALID,195,VALID,1.18771,
1999-10-14, 03:20:00,VALID,0,VALID,96.427,VALID,-0.0169808,VALID,16.8702,VALID,190,VALID,1.31209,
1999-10-14, 03:21:00,VALID,0,VALID,96.3228,VALID,-0.0169808,VALID,16.8958,VALID,179,VALID,0.894748,
1999-10-14, 03:22:01,VALID,0,VALID,96.2808,VALID,0,VALID,16.909,VALID,185,VALID,0.971788,
1999-10-14, 03:23:00,VALID,0,VALID,96.2834,VALID,-0.0169808,VALID,16.9193,VALID,191,VALID,1.10332,
1999-10-14, 03:24:00,VALID,0,VALID,96.455,VALID,0,VALID,16.8963,VALID,197,VALID,0.805288,
1999-10-14, 03:25:00,VALID,0,VALID,96.4754,VALID,0,VALID,16.8932,VALID,198,VALID,1.08861,
1999-10-14, 03:26:00,VALID,0,VALID,96.4779,VALID,0,VALID,16.8573,VALID,193,VALID,1.17229,
1999-10-14, 03:27:00,VALID,0,VALID,96.5746,VALID,0,VALID,16.8573,VALID,198,VALID,0.873972,
1999-10-14, 03:28:00,VALID,0,VALID,96.6648,VALID,0,VALID,16.8443,VALID,205,VALID,0.950457,
1999-10-14, 03:29:00,VALID,0,VALID,96.7246,VALID,-0.0169808,VALID,16.8312,VALID,202,VALID,1.02578,
1999-10-14, 03:30:00,VALID,0,VALID,96.7895,VALID,-0.0169808,VALID,16.832,VALID,202,VALID,1.05181,
1999-10-14, 03:31:00,VALID,0,VALID,96.8594,VALID,0.0169808,VALID,16.806,VALID,194,VALID,1.14648,
1999-10-14, 03:32:00,VALID,0,VALID,96.9014,VALID,-0.0169808,VALID,16.7894,VALID,190,VALID,1.2933,
1999-10-14, 03:33:01,VALID,0,VALID,96.8429,VALID,0.0169808,VALID,16.7924,VALID,186,VALID,1.38939,
1999-10-14, 03:34:00,VALID,0,VALID,96.7615,VALID,0.0169808,VALID,16.8021,VALID,189,VALID,1.22759,
1999-10-14, 03:35:00,VALID,0,VALID,96.7666,VALID,0.0169808,VALID,16.8154,VALID,198,VALID,1.11657,
1999-10-14, 03:36:00,VALID,0,VALID,96.8022,VALID,0,VALID,16.8088,VALID,196,VALID,1.10916,
1999-10-14, 03:37:00,VALID,0,VALID,96.834,VALID,0,VALID,16.7961,VALID,194,VALID,1.38151,
1999-10-14, 03:38:00,VALID,0,VALID,96.8034,VALID,0.0339617,VALID,16.7924,VALID,193,VALID,1.30938,
1999-10-14, 03:39:00,VALID,0,VALID,96.839,VALID,0,VALID,16.8023,VALID,195,VALID,0.989383,
1999-10-14, 03:40:00,VALID,0,VALID,96.8289,VALID,0,VALID,16.8023,VALID,197,VALID,1.228,
1999-10-14, 03:41:00,VALID,0,VALID,96.8365,VALID,-0.0169808,VALID,16.7995,VALID,196,VALID,1.26994,
1999-10-14, 03:42:00,VALID,0,VALID,96.8925,VALID,0,VALID,16.7861,VALID,198,VALID,1.09766,
1999-10-14, 03:43:00,VALID,0,VALID,96.9522,VALID,0.0169808,VALID,16.773,VALID,196,VALID,1.05907,
1999-10-14, 03:44:01,VALID,0,VALID,96.9967,VALID,0,VALID,16.7732,VALID,200,VALID,0.888086,
1999-10-14, 03:45:00,VALID,0,VALID,97.0387,VALID,0.0169808,VALID,16.7738,VALID,195,VALID,1.06785,
1999-10-14, 03:46:00,VALID,0,VALID,97.0285,VALID,0,VALID,16.7603,VALID,192,VALID,1.21113,
1999-10-14, 03:47:00,VALID,0,VALID,97.0425,VALID,-0.0169808,VALID,16.7571,VALID,195,VALID,1.01161,
1999-10-14, 03:48:00,VALID,0,VALID,97.0527,VALID,0,VALID,16.7577,VALID,195,VALID,0.991365,
1999-10-14, 03:49:00,VALID,0,VALID,97.0641,VALID,0.0169808,VALID,16.7443,VALID,198,VALID,0.99116,
1999-10-14, 03:50:00,VALID,0,VALID,97.0705,VALID,0.0169808,VALID,16.7411,VALID,204,VALID,0.833676,
1999-10-14, 03:51:00,VALID,0,VALID,97.04,VALID,0,VALID,16.7381,VALID,210,VALID,1.00434,
1999-10-14, 03:52:00,VALID,0,VALID,97.0272,VALID,0.0339617,VALID,16.7312,VALID,209,VALID,0.836155,
1999-10-14, 03:53:00,VALID,0,VALID,97.0768,VALID,0.0169808,VALID,16.7215,VALID,210,VALID,0.953711,
1999-10-14, 03:54:01,VALID,0,VALID,97.04,VALID,0,VALID,16.7185,VALID,204,VALID,0.859575,
1999-10-14, 03:55:01,VALID,0,VALID,97.1086,VALID,0,VALID,16.7379,VALID,210,VALID,0.767064,
1999-10-14, 03:56:00,VALID,0,VALID,97.0616,VALID,0.0169808,VALID,16.7256,VALID,208,VALID,0.863076,
1999-10-14, 03:57:00,VALID,0,VALID,97.0845,VALID,0,VALID,16.7249,VALID,203,VALID,0.73787,
1999-10-14, 03:58:00,VALID,0,VALID,97.0832,VALID,0.0169808,VALID,16.7215,VALID,197,VALID,0.661014,
1999-10-14, 03:59:00,VALID,0,VALID,97.0717,VALID,0,VALID,16.7316,VALID,195,VALID,0.551562,
1999-10-14, 04:00:00,VALID,0,VALID,97.1074,VALID,0.0169808,VALID,16.7413,VALID,199,VALID,0.648026,
1999-10-14, 04:01:00,VALID,0,VALID,97.2116,VALID,0,VALID,16.7348,VALID,198,VALID,0.48125,
1999-10-14, 04:02:00,VALID,0,VALID,97.0934,VALID,0.0169808,VALID,16.7183,VALID,189,VALID,0.91317,
1999-10-14, 04:03:00,VALID,0,VALID,96.9942,VALID,-0.0169808,VALID,16.7383,VALID,192,VALID,0.975123,
1999-10-14, 04:04:00,VALID,0,VALID,96.9471,VALID,0,VALID,16.7245,VALID,182,VALID,0.99815,